#timestamp,LO_Frequency,Hit,StdDev 
1513944015.7,286047009.2,N
1513944035.6,286047008.1,N
1513944055.4,286047007.7,N
1513944075.2,286047011.8,Y
1513944095.1,286046999.8,P
1513944096.0,286046999.8,N
1513944115.8,286047003.1,N
1513944135.6,286047001.3,N
1513944155.5,286047001.7,N
1513944175.3,286047000.4,N
1513944195.1,286047002.5,N
1513944215.8,286047001.4,N
1513944235.7,286046998.3,N
1513944255.5,286046998.4,N
1513944275.3,286047001.0,N
1513944295.2,286046995.6,N
1513944315.9,286046993.2,N
1513944335.7,286046991.1,N
1513944355.6,286046989.7,N
1513944375.4,286046985.5,Y
1513944395.2,286046987.8,P
1513944415.1,286046987.7,N
1513944416.0,286046987.7,N
1513944435.8,286046988.2,N
1513944455.6,286046990.0,N
1513944475.5,286046984.6,Y
1513944495.3,286046995.4,P
1513944515.1,286046996.5,N
1513944535.9,286046996.9,N
1513944555.7,286046997.9,N
1513944575.5,286046996.8,N
1513944595.4,286046999.4,N
1513944615.2,286046996.5,N
1513944635.0,286046998.4,N
1513944635.9,286046998.4,N
1513944655.8,286046998.3,N
1513944675.6,286046997.0,N
1513944695.4,286046995.7,N
1513944715.3,286046992.1,Y
1513944735.1,286046997.5,P
1513944736.0,286046997.5,P
1513944755.8,286046999.2,N
1513944775.6,286047002.0,N
1513944795.5,286047006.0,Y
1513944815.8,286047004.2,P
1513944835.6,286047001.5,N
1513944855.5,286047002.0,N
1513944875.3,286047001.9,N
1513944895.1,286046999.7,N
1513944915.8,286046998.7,N
1513944935.7,286047000.3,N
1513944955.5,286046997.1,N
1513944975.3,286046997.4,N
1513944995.2,286046998.4,N
1513945015.9,286046998.1,N
1513945035.7,286047001.2,N
1513945055.6,286046999.0,N
1513945075.4,286047002.6,N
1513945095.2,286047002.7,N
1513945115.1,286047003.8,N
1513945116.0,286047003.8,N
1513945135.8,286047007.0,Y
1513945155.6,286047003.1,P
1513945175.5,286047001.3,N
1513945195.3,286047000.9,N
1513945215.1,286047000.6,N
1513945235.9,286046994.9,Y
1513945255.7,286046997.3,P
1513945275.5,286047000.9,N
1513945295.4,286046997.5,N
1513945315.2,286046996.1,N
1513945335.0,286046994.4,N
1513945335.9,286046994.4,N
1513945355.8,286046994.3,N
1513945375.6,286046995.4,N
1513945395.4,286046996.0,N
1513945415.2,286046999.2,N
1513945435.1,286047000.8,N
1513945436.0,286047000.8,N
1513945455.8,286046998.5,N
1513945475.6,286046997.5,N
1513945495.5,286046993.5,N
1513945515.3,286046997.1,N
1513945535.1,286046998.9,N
1513945555.9,286046998.0,N
1513945575.7,286046994.8,N
1513945595.5,286046994.3,N
1513945615.4,286046996.1,N
1513945635.2,286046991.9,Y
1513945655.0,286046993.5,P
1513945655.9,286046993.5,P
1513945675.8,286046994.6,P
1513945695.6,286046989.1,Y
1513945715.4,286046997.5,P
1513945735.3,286046997.2,N
1513945755.1,286046995.7,P
1513945756.0,286046995.7,Y
1513945775.8,286046999.8,P
1513945795.7,286046998.6,N
1513945815.5,286046998.8,N
1513945835.3,286047002.5,N
1513945855.2,286047001.9,N
1513945875.9,286047000.2,N
1513945895.7,286047001.9,N
1513945915.6,286047003.5,N
1513945935.4,286047008.0,Y
1513945955.2,286047006.3,P
1513945975.1,286047007.3,N
1513945976.0,286047007.3,N
1513945995.8,286047004.6,N
1513946015.6,286047007.3,N
1513946035.5,286047010.8,Y
1513946055.3,286047001.6,P
1513946075.1,286047003.7,N
1513946095.9,286047004.6,N
1513946115.7,286047011.6,Y
1513946135.5,286047007.3,P
1513946155.4,286047004.8,N
1513946175.2,286047001.8,N
1513946195.0,286047003.5,N
1513946195.9,286047003.5,N
1513946215.8,286047001.1,N
1513946235.6,286047000.9,N
1513946255.4,286046998.5,N
1513946275.2,286046996.1,N
1513946295.1,286046995.2,N
1513946296.0,286046995.2,N
1513946315.8,286046997.8,N
1513946335.6,286046999.2,N
1513946355.5,286046998.0,N
1513946375.3,286046999.5,N
1513946395.1,286046999.6,N
1513946415.9,286046998.7,N
1513946435.7,286046999.5,N
1513946455.5,286046997.6,N
1513946475.4,286046995.7,N
1513946495.2,286046998.6,N
1513946515.0,286047000.5,N
1513946515.9,286047000.5,N
1513946535.8,286047003.5,N
1513946555.6,286047002.4,N
1513946575.4,286046998.8,N
1513946595.2,286047002.0,N
1513946615.1,286047004.4,N
1513946616.0,286047004.4,N
1513946635.8,286047004.7,N
1513946655.6,286047008.8,N
1513946675.5,286047005.8,N
1513946695.3,286047008.7,N
1513946715.1,286047008.0,N
1513946735.9,286047006.6,N
1513946755.7,286047014.0,Y
1513946775.5,286047011.9,P
1513946795.4,286047008.1,N
1513946815.2,286047007.9,N
1513946835.0,286047010.8,N
1513946835.9,286047010.8,N
1513946855.8,286047005.8,N
1513946875.6,286047002.7,N
1513946895.4,286046999.0,N
1513946915.3,286046998.6,N
1513946935.1,286047000.6,N
1513946936.0,286047000.6,N
1513946955.8,286047001.3,N
1513946975.7,286047003.5,N
1513946995.5,286047000.1,N
1513947015.3,286046998.2,N
1513947035.1,286046996.5,N
1513947055.9,286046994.1,N
1513947075.7,286046995.3,N
1513947095.5,286046993.5,N
1513947115.4,286046993.9,N
1513947135.2,286046992.4,N
1513947155.0,286046995.1,N
1513947155.9,286046995.1,N
1513947175.8,286046997.6,N
1513947195.6,286046995.0,N
1513947215.4,286046993.9,N
1513947235.3,286046991.8,N
1513947255.1,286046994.6,N
1513947256.0,286046994.6,N
1513947275.8,286046996.0,N
1513947295.7,286046996.8,N
1513947315.5,286046995.9,N
1513947335.3,286046995.6,N
1513947355.2,286046994.2,N
1513947375.9,286046997.2,N
1513947395.7,286046998.9,N
1513947415.6,286046997.0,N
1513947435.4,286046997.2,N
1513947455.2,286046998.0,N
1513947475.0,286046999.2,N
1513947475.9,286046999.2,N
1513947495.8,286047001.3,N
1513947515.6,286047004.1,N
1513947535.4,286047002.7,N
1513947555.3,286046995.0,N
1513947575.1,286046997.4,N
1513947595.8,286046999.7,N
